Location: Unspecified
(48.8656°N, 0.0000°E)
Time: 05:55:01
(UTC+00:00)

SR - Pass Details

Date: 26 June 2019
Orbit: 581 x 875 km, 66.7° (Epoch: 15 July)

Event Time Altitude Azimuth Distance (km) Brightness Sun altitude
Rises 03:13:24 0° 219° (SW) 2,790 - -6.2°
Exits shadow 03:15:06 - 220° (SW) 2,098 ? -6.0°
Reaches altitude 10° 03:15:36 10° 221° (SW) 1,895 ? -6.0°
Maximum altitude 03:19:49 75° 307° (NW) 617 ? -5.5°
Drops below altitude 10° 03:24:13 10° 33° (NNE) 1,972 ? -5.0°
Sets 03:26:33 0° 35° (NE) 2,915 ? -4.7°
